Regional Weather Roundup
Issued by NWS

Home | Current Version | Previous Version | Graphics & Text | Print | Product List | Glossary Off
Versions: 1 2 3 4 5 6 7 8 9 10 11 12 13 14 15 16 17 18 19 20 21 22 23 24 25 26 27 28 29 30 31 32 33 34 35 36 37 38 39 40 41 42 43 44 45 46 47 48 49 50

000
ASUS43 KDMX 070801
RWRIA

WEATHER ROUNDUP FOR IOWA
NATIONAL WEATHER SERVICE DES MOINES IA
200 AM CST WED DEC 07 2016

NOTE: "FAIR" INDICATES FEW OR NO CLOUDS BELOW 12,000 FEET WITH NO
SIGNIFICANT WEATHER AND/OR OBSTRUCTIONS TO VISIBILITY.

* - THESE STATIONS ARE NOT NWS STATIONS...THUS NOT UNDER NWS
QUALITY CONTROL.  THEY ALSO DO NOT REPORT WEATHER SUCH
AS PRECIPITATION OR FOG.

IAZ001>003-012>014-020>022-031>034-043>046-070900-
   NORTHWEST IOWA

CITY           SKY/WX    TMP DP  RH WIND       PRES   REMARKS
CARROLL *      CLOUDY    18  10  73 W17G23    30.13R WCI   2
CHEROKEE *     PTCLDY    14   8  78 W16       30.11S WCI  -2
DENISON *      CLOUDY    16   9  73 W9G21     30.14R WCI   4
LE MARS *      CLOUDY    14   7  73 W13G23    30.14S WCI   0
ORANGE CITY *  CLEAR     12   9  85 W22G29    30.08S WCI  -7
SHELDON *      PTCLDY    12   7  79 W22G30    30.07R WCI  -7
SIOUX CITY     CLOUDY    17   7  64 W15       30.16S WCI   2
SPENCER        CLEAR     12   6  77 W23G37    30.06R WCI  -7
STORM LAKE *   CLOUDY    12   9  85 W28       30.07R WCI  -9
$$

IAZ055>058-069>071-079>083-090>094-070900-
   SOUTHWEST IOWA

CITY           SKY/WX    TMP DP  RH WIND       PRES   REMARKS
ATLANTIC *     CLOUDY    19  10  68 NW16G23   30.16R WCI   5
AUDUBON *      CLOUDY    18  10  73 W8        30.14R WCI   7
CLARINDA *     CLOUDY    25  16  68 N9        30.20R WCI  15
COUNCIL BLFS * PTCLDY    19  10  68 NW12G18   30.17R WCI   7
CRESTON *      CLOUDY    21  12  68 NW14      30.15R WCI   8
HARLAN  *      CLOUDY    19  10  68 W16       30.19R WCI   5
LAMONI         MOCLDY    24  13  62 NW17      30.13S WCI  11
RED OAK *      CLOUDY    23  12  63 NW10G17   30.18S WCI  12
SHENANDOAH *   CLOUDY    25  12  58 NW8G16    30.20S WCI  16
$$

IAZ047>049-059>061-072>074-084-070900-
   CENTRAL IOWA

CITY           SKY/WX    TMP DP  RH WIND       PRES   REMARKS
AMES           PTCLDY    19  12  74 W18       30.11R WCI   4
ANKENY *       PTCLDY    21  10  63 W20       30.14R WCI   6
BOONE *        CLOUDY    18  10  73 W18G25    30.09R WCI   2
CHARITON *       N/A     23  14  68 W14       30.14R WCI  11
DES MOINES     CLOUDY    22  11  62 W17G24    30.14R WCI   8
GRINNELL*      CLEAR     21  14  76 W15       30.09R WCI   7
KNOXVILLE *    CLOUDY    23  12  63 W16       30.12R WCI  10
MARSHALLTOWN   PTCLDY    19  12  74 W13G23    30.08R WCI   6
NEWTON *       PTCLDY    21  14  73 W14       30.10R WCI   8
PELLA *        PTCLDY    24  15  67 W13       30.13R WCI  12
PERRY *          N/A     20  15  81 W17       30.14R WCI   5
$$

IAZ004>006-015-016-023>025-035-036-070900-
   NORTH CENTRAL IOWA

CITY           SKY/WX    TMP DP  RH WIND       PRES   REMARKS
ALGONA *       CLEAR     14   9  79 W18G28    30.03R WCI  -3
CLARION *      MOCLDY    16  10  79 W25G33    30.05S WCI  -3
ESTHERVILLE    CLEAR     12   7  80 W21G26    30.02R WCI  -7
FORT DODGE *   CLEAR     16   7  67 W13       30.09R WCI   2
MASON CITY     CLEAR     14   8  77 W21       30.03R WCI  -4
WEBSTER CITY * MOCLDY    18  12  79 W20G25    30.06R WCI   1
IOWA FALLS *     N/A     18  13  80 W23       30.06R WCI   1
$$

IAZ007>011-017>019-026>030-037>042-050>054-066-070900-
   NORTHEAST IOWA

CITY           SKY/WX    TMP DP  RH WIND       PRES   REMARKS
CEDAR RAPIDS   PTCLDY    20  15  81 W12       30.06R WCI   8
CHARLES CITY * CLOUDY    16   9  73 W22G30    30.01R WCI  -2
CLINTON *      PTCLDY    24  20  84 W13       30.05R WCI  12
DECORAH *      MOCLDY    16  10  79 W13G21    29.97R WCI   2
DUBUQUE        FLURRIES  19  13  77 W17       30.00R WCI   4
MONTICELLO *   PTCLDY    21  14  73 W9        30.05R WCI  11
OELWEIN *      FLURRIES  19  14  79 W23G30    30.01R WCI   2
WATERLOO       CLOUDY    19  12  74 W20G28    30.05R WCI   3
$$

IAZ064-065-067-068-078-070900-
   EAST CENTRAL IOWA

CITY           SKY/WX    TMP DP  RH WIND       PRES   REMARKS
DAVENPORT      CLOUDY    25  18  74 W15       30.06R WCI  13
IOWA CITY      PTCLDY    24  15  68 W15G21    30.10R WCI  11
MUSCATINE *    CLOUDY    27  16  63 W17       30.11R WCI  14
QUAD CITIES    CLOUDY    28  16  60 W20G26    30.07R WCI  15
$$

IAZ062-063-075>077-085>089-095>099-070900-
   SOUTHEAST IOWA

CITY           SKY/WX    TMP DP  RH WIND       PRES   REMARKS
BURLINGTON     CLOUDY    28  16  60 W10       30.10S WCI  19
FAIRFIELD *    PTCLDY    27  12  54 W16G24    30.10S WCI  14
FORT MADISON * PTCLDY    28  16  59 W13       30.12R WCI  18
KEOKUK *       CLOUDY    30  16  55 NW8G16    30.11S WCI  23
OSKALOOSA *      N/A     24  16  70 W16       30.12R WCI  11
CENTERVILLE *    N/A     25  14  63 W15       30.14R WCI  12
OTTUMWA        CLEAR     25  12  58 W13       30.11R WCI  14
WASHINGTON *   PTCLDY    25  18  74 W14       30.11R WCI  13
$$

ABBREVIATIONS USED IN REMARKS
   TC - TEMPERATURES IN CELSIUS
  WCI - WIND CHILL INDEX
   HX - HEAT INDEX
  VSB - VISIBILITY
$$




USA.gov is the U.S. government's official web portal to all federal, state and local government web resources and services.